sat.trackr.live / text

‹ back to catalog

STARLINK-3099

NORAD 49446 · 2021-104AQ

PAYLOAD ACTIVE UNKNOWN

§ Identity

Operator
Country
US
Launch date
2021-11-13
Launch site
AFETR
Launch vehicle
Mass (kg)
RCS (m²)

Purposes: comms

External: N2YO · Heavens-Above · Gunter

§ Orbital elements

Epoch: 2026-05-25T04:25:19.180128Z

Period
95.44 min
Inclination
53.2126°
Eccentricity
0.0001079
Mean motion
15.08835058 rev/d
Perigee alt
539.0 km
Apogee alt
540.5 km
Semi-major
6,917.9 km
B*
2.5256e-6
RAAN
225.7225°
Arg perigee
102.3419°
Mean anomaly
257.7694°
Rev number
25,046

§ Raw data

STARLINK-30991 49446U 21104AQ  26145.18424977 -.00000248  00000+0  25256-5 0  99942 49446  53.2126 225.7225 0001079 102.3419 257.7694 15.08835058250460

JSON: /api/v1/satellites/49446 · /tle

For live sub-satellite position, see the globe view (requires WebGL).

§ Visibility from observer

Set your observer location to see the next 7 days of passes ≥ 10°. The values pass through the URL so the page stays shareable.

No JS? Fill the form by hand. The geolocation button needs JavaScript.